Regional Weather Roundup
Issued by NWS Nashville, TN

Home | Current Version | Previous Version | Text Only | Print | Product List | Glossary On
Versions: 1 2 3 4 5 6 7 8 9 10 11 12 13 14 15 16 17 18 19 20 21 22 23 24 25 26 27 28 29 30 31 32 33 34 35 36 37 38 39 40 41 42 43 44 45 46 47 48 49 50
000
ASUS44 KOHX 161210
RWROHX
MIDDLE TENNESSEE HOURLY WEATHER ROUNDUP
NATIONAL WEATHER SERVICE NASHVILLE TN
600 AM CST SAT DEC 16 2017

NOTE: "FAIR" INDICATES FEW OR NO CLOUDS BELOW 12,000 FEET WITH
NO SIGNIFICANT WEATHER AND/OR OBSTRUCTIONS TO VISIBILITY.

* THESE REPORTS ARE NOT UNDER NWS QUALITY CONTROL AND MAY NOT
  REPORT WEATHER SUCH AS PRECIPITATION AND FOG.


TNZ005>011-023>034-057-059-062>066-078-080-161300
...NORTHERN MIDDLE TENNESSEE...

CITY           SKY/WX    TMP DP  RH WIND       PRES   REMARKS
CLARKSVILLE    CLEAR     32  24  72 S9        30.18R WCI  24
CROSSVILLE     CLOUDY    23  20  88 S5        30.20R WCI  17
GALLATIN       CLEAR     23  21  93 CALM      30.25R
DICKSON          N/A     28  23  81 S7        30.18R WCI  21
NASHVILLE      CLOUDY    29  23  78 S3        30.22R
PORTLAND       CLEAR     28  25  86 S13       30.18R WCI  18
SMYRNA         CLOUDY    26  22  84 SE7       30.24S WCI  18
SPARTA         MOCLDY    19  18  93 CALM      30.22R
SPRINGFIELD    PTCLDY    32  27  80 S9        30.17S WCI  24
WEST NASHVILLE CLEAR     30  25  80 CALM      30.20S
$$
TNZ056-058-060-061-075>077-079-093>097-161300
...SOUTHERN MIDDLE TENNESSEE...

CITY           SKY/WX    TMP DP  RH WIND       PRES   REMARKS
COLUMBIA       PTCLDY    27  25  93 CALM      30.21R
FAYETTEVILLE   CLEAR     25  23  93 S5        30.23R WCI  19
MCMINNVILLE    MOCLDY    21  19  93 CALM      30.23R
MURFREESBORO   CLOUDY    28  23  80 S3        30.23R
PULASKI        PTCLDY    23  21  93 CALM      30.25R
SHELBYVILLE    CLEAR     23  21  93 E5        30.24R WCI  17
TULLAHOMA      MOCLDY    21  19  93 CALM      30.23R
WINCHESTER     CLEAR     21  19  93 CALM      30.25R
$$


...KEY TO REMARKS...
VSB - VISIBILITY IN MILES
WCI - WIND CHILL INDEX
HX  - HEAT INDEX




USA.gov is the U.S. government's official web portal to all federal, state and local government web resources and services.